• In Deutschland
  • Länderverzeichnis
  • Für 7 Tage
  • Wassertemperatur
  • Satellitenkarten
  • Wetterkarte
  • Widgets
  • user-avatar
    Anmelden

    Stündliche Wetter Lipovskaya

    Heute, 22 April, Sonntag

    Zeit Temperatur Niederschläge Wind Luftdruck Luftfeuchtigkeit
    00:00 +5°C° 0 mm 6 m/S 733 mmHg 67%
    01:00 +5°C° 0 mm 6 m/S 734 mmHg 68%
    02:00 +5°C° 0 mm 4 m/S 734 mmHg 72%
    03:00 +5°C° 0 mm 4 m/S 734 mmHg 72%
    04:00 +5°C° 0 mm 5 m/S 734 mmHg 72%
    05:00 +3°C° 0 mm 5 m/S 734 mmHg 72%
    06:00 +4°C° 0 mm 6 m/S 734 mmHg 70%
    07:00 +5°C° 0 mm 7 m/S 734 mmHg 67%
    08:00 +6°C° 0 mm 7 m/S 734 mmHg 64%
    09:00 +6°C° 0,1 mm 7 m/S 734 mmHg 63%
    10:00 +6°C° 0,1 mm 7 m/S 735 mmHg 62%
    11:00 +8°C° 0,1 mm 7 m/S 735 mmHg 61%
    12:00 +8°C° 0,3 mm 7 m/S 735 mmHg 60%
    13:00 +8°C° 0,3 mm 7 m/S 735 mmHg 59%
    14:00 +9°C° 0,3 mm 8 m/S 735 mmHg 58%
    15:00 +9°C° 0,2 mm 7 m/S 736 mmHg 59%
    16:00 +8°C° 0,2 mm 6 m/S 736 mmHg 60%
    17:00 +8°C° 0,2 mm 6 m/S 736 mmHg 61%
    18:00 +7°C° 0 mm 5 m/S 737 mmHg 65%
    19:00 +5°C° 0 mm 4 m/S 737 mmHg 70%
    20:00 +4°C° 0 mm 3 m/S 738 mmHg 74%
    21:00 +3°C° 0 mm 3 m/S 739 mmHg 75%
    22:00 +3°C° 0 mm 3 m/S 739 mmHg 75%
    23:00 +2°C° 0 mm 3 m/S 740 mmHg 75%

    Morgen, 23 April, Montag

    Zeit Temperatur Niederschläge Wind Luftdruck Luftfeuchtigkeit
    00:00 +3°C° 0 mm 2 m/S 740 mmHg 75%
    01:00 +2°C° 0 mm 2 m/S 741 mmHg 75%
    02:00 +2°C° 0 mm 2 m/S 741 mmHg 76%
    03:00 +1°C° 0 mm 2 m/S 741 mmHg 76%
    04:00 +1°C° 0 mm 2 m/S 742 mmHg 77%
    05:00 -1°C° 0 mm 2 m/S 742 mmHg 77%
    06:00 +1°C° 0 mm 2 m/S 743 mmHg 68%
    07:00 +2°C° 0 mm 3 m/S 743 mmHg 59%
    08:00 +3°C° 0 mm 3 m/S 743 mmHg 50%
    09:00 +4°C° 0 mm 3 m/S 744 mmHg 47%
    10:00 +5°C° 0 mm 3 m/S 744 mmHg 43%
    11:00 +7°C° 0 mm 3 m/S 744 mmHg 39%
    12:00 +8°C° 0 mm 2 m/S 744 mmHg 38%
    13:00 +8°C° 0 mm 2 m/S 744 mmHg 36%
    14:00 +9°C° 0 mm 2 m/S 743 mmHg 35%
    15:00 +9°C° 0 mm 2 m/S 743 mmHg 35%
    16:00 +9°C° 0 mm 2 m/S 743 mmHg 36%
    17:00 +9°C° 0 mm 2 m/S 743 mmHg 37%
    18:00 +8°C° 0 mm 1 m/S 743 mmHg 42%
    19:00 +7°C° 0 mm 1 m/S 743 mmHg 47%
    20:00 +4°C° 0 mm 0 m/S 743 mmHg 52%
    21:00 +5°C° 0 mm 1 m/S 743 mmHg 53%
    22:00 +4°C° 0 mm 1 m/S 743 mmHg 55%
    23:00 +4°C° 0 mm 1 m/S 743 mmHg 56%

    übermorgen, 24 April, Dienstag

    Zeit Temperatur Niederschläge Wind Luftdruck Luftfeuchtigkeit
    00:00 +4°C° 0 mm 1 m/S 743 mmHg 58%
    01:00 +2°C° 0 mm 2 m/S 743 mmHg 60%
    02:00 +2°C° 0 mm 2 m/S 743 mmHg 62%
    03:00 +2°C° 0 mm 2 m/S 742 mmHg 63%
    04:00 +2°C° 0 mm 2 m/S 742 mmHg 64%
    05:00 +2°C° 0 mm 2 m/S 742 mmHg 65%
    06:00 +2°C° 0 mm 3 m/S 742 mmHg 62%
    07:00 +4°C° 0 mm 3 m/S 742 mmHg 59%
    08:00 +5°C° 0 mm 3 m/S 741 mmHg 56%
    09:00 +7°C° 0 mm 4 m/S 741 mmHg 54%
    10:00 +10°C° 0 mm 4 m/S 741 mmHg 51%
    11:00 +10°C° 0 mm 5 m/S 740 mmHg 49%
    12:00 +11°C° 0,2 mm 4 m/S 740 mmHg 56%
    13:00 +10°C° 0,2 mm 4 m/S 739 mmHg 63%
    14:00 +10°C° 0,2 mm 4 m/S 739 mmHg 70%
    15:00 +9°C° 0,7 mm 3 m/S 739 mmHg 76%
    16:00 +9°C° 0,7 mm 3 m/S 739 mmHg 81%
    17:00 +8°C° 0,7 mm 3 m/S 738 mmHg 87%
    18:00 +8°C° 0,2 mm 3 m/S 738 mmHg 90%
    19:00 +8°C° 0,2 mm 2 m/S 738 mmHg 92%
    20:00 +8°C° 0,2 mm 2 m/S 738 mmHg 95%
    21:00 +7°C° 0 mm 2 m/S 738 mmHg 95%
    22:00 +7°C° 0 mm 2 m/S 738 mmHg 96%
    23:00 +6°C° 0 mm 2 m/S 738 mmHg 96%

    25 April, Mittwoch

    Zeit Temperatur Niederschläge Wind Luftdruck Luftfeuchtigkeit
    00:00 +6°C° 0 mm 2 m/S 738 mmHg 96%
    01:00 +5°C° 0 mm 2 m/S 738 mmHg 96%
    02:00 +5°C° 0 mm 2 m/S 738 mmHg 95%
    03:00 +5°C° 0 mm 2 m/S 738 mmHg 95%
    04:00 +5°C° 0 mm 2 m/S 738 mmHg 95%
    05:00 +5°C° 0 mm 2 m/S 738 mmHg 95%
    06:00 +5°C° 0,1 mm 3 m/S 738 mmHg 90%
    07:00 +6°C° 0,1 mm 4 m/S 738 mmHg 86%
    08:00 +7°C° 0,1 mm 4 m/S 739 mmHg 82%
    09:00 +8°C° 0,2 mm 5 m/S 738 mmHg 81%
    10:00 +9°C° 0,2 mm 5 m/S 738 mmHg 80%
    11:00 +9°C° 0,2 mm 5 m/S 738 mmHg 79%
    12:00 +9°C° 0,2 mm 5 m/S 737 mmHg 81%
    13:00 +9°C° 0,2 mm 5 m/S 737 mmHg 83%
    14:00 +10°C° 0,2 mm 6 m/S 737 mmHg 85%
    15:00 +10°C° 0,2 mm 5 m/S 736 mmHg 82%
    16:00 +12°C° 0,2 mm 5 m/S 736 mmHg 79%
    17:00 +13°C° 0,2 mm 5 m/S 736 mmHg 76%
    18:00 +12°C° 0,1 mm 5 m/S 736 mmHg 79%
    19:00 +10°C° 0,1 mm 4 m/S 736 mmHg 82%
    20:00 +9°C° 0,1 mm 3 m/S 737 mmHg 85%
    21:00 +8°C° 0 mm 3 m/S 737 mmHg 86%
    22:00 +7°C° 0 mm 3 m/S 737 mmHg 87%
    23:00 +7°C° 0 mm 2 m/S 737 mmHg 89%

    26 April, Donnerstag

    Zeit Temperatur Niederschläge Wind Luftdruck Luftfeuchtigkeit
    00:00 +7°C° 0,3 mm 2 m/S 737 mmHg 89%
    01:00 +7°C° 0,3 mm 2 m/S 737 mmHg 88%
    02:00 +6°C° 0,3 mm 2 m/S 737 mmHg 88%
    03:00 +6°C° 0,3 mm 2 m/S 737 mmHg 89%
    04:00 +6°C° 0,3 mm 2 m/S 737 mmHg 90%
    05:00 +6°C° 0,3 mm 2 m/S 737 mmHg 92%
    06:00 +7°C° 0 mm 3 m/S 737 mmHg 86%
    07:00 +7°C° 0 mm 3 m/S 738 mmHg 80%
    08:00 +7°C° 0 mm 4 m/S 738 mmHg 75%
    09:00 +10°C° 0 mm 4 m/S 738 mmHg 68%
    10:00 +10°C° 0 mm 5 m/S 739 mmHg 60%
    11:00 +12°C° 0 mm 5 m/S 739 mmHg 53%
    12:00 +13°C° 0 mm 6 m/S 739 mmHg 51%
    13:00 +13°C° 0 mm 6 m/S 739 mmHg 48%
    14:00 +14°C° 0 mm 6 m/S 739 mmHg 46%
    15:00 +14°C° 0 mm 5 m/S 739 mmHg 47%
    16:00 +14°C° 0 mm 4 m/S 739 mmHg 49%
    17:00 +14°C° 0 mm 4 m/S 739 mmHg 51%
    18:00 +12°C° 0 mm 3 m/S 740 mmHg 57%
    19:00 +10°C° 0 mm 3 m/S 740 mmHg 63%
    20:00 +9°C° 0 mm 2 m/S 740 mmHg 70%
    21:00 +8°C° 0 mm 2 m/S 740 mmHg 72%
    22:00 +8°C° 0 mm 3 m/S 741 mmHg 74%
    23:00 +7°C° 0 mm 3 m/S 741 mmHg 76%

    27 April, Freitag

    Zeit Temperatur Niederschläge Wind Luftdruck Luftfeuchtigkeit
    00:00 +7°C° 0 mm 3 m/S 740 mmHg 76%
    01:00 +7°C° 0 mm 3 m/S 740 mmHg 75%
    02:00 +8°C° 0 mm 3 m/S 740 mmHg 75%
    03:00 +7°C° 0,5 mm 4 m/S 740 mmHg 77%
    04:00 +7°C° 0,5 mm 4 m/S 739 mmHg 80%
    05:00 +7°C° 0,5 mm 4 m/S 739 mmHg 82%
    06:00 +8°C° 1,2 mm 4 m/S 739 mmHg 86%
    07:00 +9°C° 1,2 mm 3 m/S 739 mmHg 90%
    08:00 +9°C° 1,2 mm 3 m/S 739 mmHg 93%
    09:00 +9°C° 0,6 mm 3 m/S 739 mmHg 93%
    10:00 +10°C° 0,6 mm 3 m/S 739 mmHg 92%
    11:00 +10°C° 0,6 mm 3 m/S 739 mmHg 91%
    12:00 +12°C° 0,7 mm 2 m/S 739 mmHg 87%
    13:00 +12°C° 0,7 mm 2 m/S 739 mmHg 83%
    14:00 +13°C° 0,7 mm 2 m/S 739 mmHg 79%
    15:00 +12°C° 0,2 mm 3 m/S 739 mmHg 77%
    16:00 +12°C° 0,2 mm 3 m/S 739 mmHg 75%
    17:00 +12°C° 0,2 mm 4 m/S 739 mmHg 73%
    18:00 +11°C° 0 mm 3 m/S 740 mmHg 76%
    19:00 +9°C° 0 mm 3 m/S 740 mmHg 80%
    20:00 +8°C° 0 mm 3 m/S 741 mmHg 83%
    21:00 +7°C° 0 mm 3 m/S 741 mmHg 84%
    22:00 +5°C° 0 mm 3 m/S 742 mmHg 85%
    23:00 +6°C° 0 mm 2 m/S 742 mmHg 86%
    Mehr zeigen